Tel Aviv, Israel

6:25 AM IST on December 15, 2017 (GMT +0200)
Ben Gurion

Weather History for LLBG - January, 2017

Change the Weather History Date:

Sunday, January 1, 2017

  Actual Average Record
Temperature  
Mean Temperature 54 °F -  
Max Temperature 62 °F 61 °F 77 °F (2000)
Min Temperature 45 °F 47 °F 43 °F (2014)
Degree Days  
Heating Degree Days 12    
Growing Degree Days 4 (Base 50)    
Moisture  
Dew Point 44 °F    
Average Humidity 72    
Maximum Humidity 93    
Minimum Humidity 42    
Precipitation  
Precipitation 0.00 in - - ()
Sea Level Pressure  
Sea Level Pressure 30.20 in    
Wind  
Wind Speed 4 mph ()    
Max Wind Speed 10 mph    
Max Gust Speed -    
Visibility 6.2 miles    
Events      
Averages and records for this station are not official NWS values.
T = Trace of Precipitation, MM = Missing Value Source: Averaged Metar Reports

Daily Weather History Graph

Daily Weather History Graph

Search for Another Location

Airport or City:

Trip Planner

Search our weather history database for the weather conditions in past years. The results will help you decide how hot, cold, wet, or windy it might be!

Date:

Astronomy

Jan. 01, 2017 Rise Set
Actual Time 6:40 AM IST 4:47 PM IST
Civil Twilight 6:14 AM IST 5:14 PM IST
Nautical Twilight 5:43 AM IST 5:44 PM IST
Astronomical Twilight 5:13 AM IST 6:14 PM IST
Moon 8:43 AM IST (1/1) 7:52 PM IST (1/1)
Length of Visible Light 11h 00m
Length of Day
10h 06m
Waxing Crescent, 9% of the Moon is Illuminated
Jan 1
Waxing Crescent
Jan 5
First Quarter
Jan 12
Full
Jan 20
Last Quarter
Jan 28
New

Hourly Weather History & Observations

Time (IST) Temp. Windchill Dew Point Humidity Pressure Visibility Wind Dir Wind Speed Gust Speed Precip Events Conditions
12:20 AM 50.0 °F - 42.8 °F 76% 30.24 in 6.2 mi Variable 3.5 mph - N/A   Partly Cloudy
12:50 AM 50.0 °F - 42.8 °F 76% 30.24 in 6.2 mi Variable 3.5 mph - N/A   Partly Cloudy
1:20 AM 50.0 °F - 42.8 °F 76% 30.24 in 6.2 mi Variable 3.5 mph - N/A   Partly Cloudy
1:50 AM 46.4 °F 44.3 °F 42.8 °F 87% 30.24 in 6.2 mi ENE 4.6 mph - N/A   Partly Cloudy
2:00 AM 47 °F - 43 °F 81% 30.25 in 6 mi 2.3 mph - -   Scattered Clouds
2:20 AM 48.2 °F - 42.8 °F 82% 30.24 in 6.2 mi NNW 5.8 mph - N/A   Scattered Clouds
2:50 AM 48.2 °F - 44.6 °F 87% 30.21 in 6.2 mi Variable 2.3 mph - N/A   Scattered Clouds
3:20 AM 48.2 °F - 44.6 °F 87% 30.24 in 6.2 mi Variable 3.5 mph - N/A   Scattered Clouds
3:50 AM 48.2 °F - 44.6 °F 87% 30.21 in 6.2 mi Variable 1.2 mph - N/A   Scattered Clouds
4:20 AM 48.2 °F - 44.6 °F 87% 30.21 in 6.2 mi Variable 2.3 mph - N/A   Partly Cloudy
4:50 AM 46.4 °F 43.5 °F 44.6 °F 93% 30.21 in 6.2 mi ESE 5.8 mph - N/A   Partly Cloudy
5:00 AM 47 °F - 45 °F 88% 30.22 in 6 mi ESE 4.6 mph - -   Scattered Clouds
5:20 AM 46.4 °F 45.2 °F 44.6 °F 93% 30.21 in 6.2 mi Variable 3.5 mph - N/A   Partly Cloudy
5:50 AM 46.4 °F 43.5 °F 42.8 °F 87% 30.21 in 6.2 mi SE 5.8 mph - N/A   Partly Cloudy
6:20 AM 46.4 °F 44.3 °F 42.8 °F 87% 30.21 in 6.2 mi SSE 4.6 mph - N/A   Partly Cloudy
6:50 AM 46.4 °F - 42.8 °F 87% 30.21 in - Variable 2.3 mph - N/A   Clear
7:20 AM 48.2 °F - 41.0 °F 76% 30.21 in 6.2 mi Variable 2.3 mph - N/A   Partly Cloudy
7:50 AM 48.2 °F - 41.0 °F 76% 30.24 in 6.2 mi Variable 2.3 mph - N/A   Partly Cloudy
8:00 AM 47 °F - 42 °F 76% 30.25 in 6 mi 2.3 mph - -   Scattered Clouds
8:20 AM 50.0 °F - 42.8 °F 76% 30.24 in 6.2 mi Variable 1.2 mph - N/A   Partly Cloudy
8:50 AM 51.8 °F - 44.6 °F 76% 30.24 in 6.2 mi Variable 1.2 mph - N/A   Partly Cloudy
9:20 AM 53.6 °F - 42.8 °F 67% 30.24 in 6.2 mi Variable 1.2 mph - N/A   Partly Cloudy
9:50 AM 55.4 °F - 44.6 °F 67% 30.24 in 6.2 mi Variable 1.2 mph - N/A   Partly Cloudy
10:20 AM 57.2 °F - 44.6 °F 63% 30.24 in 6.2 mi Variable 2.3 mph - N/A   Partly Cloudy
10:50 AM 59.0 °F - 44.6 °F 59% 30.21 in 6.2 mi Variable 2.3 mph - N/A   Partly Cloudy
11:00 AM 59 °F - 44 °F 45% 30.23 in 6 mi 2.3 mph - -   Scattered Clouds
11:20 AM 59.0 °F - 41.0 °F 51% 30.18 in 6.2 mi Variable 3.5 mph - N/A   Partly Cloudy
11:50 AM 59.0 °F - 41.0 °F 51% 30.18 in 6.2 mi WNW 4.6 mph - N/A   Partly Cloudy
12:20 PM 60.8 °F - 39.2 °F 45% 30.15 in 6.2 mi Variable 2.3 mph - N/A   Partly Cloudy
12:50 PM 62.6 °F - 39.2 °F 42% 30.15 in 6.2 mi Variable 1.2 mph - N/A   Partly Cloudy
1:20 PM 62.6 °F - 39.2 °F 42% 30.15 in 6.2 mi Variable 2.3 mph - N/A   Partly Cloudy
1:50 PM 60.8 °F - 44.6 °F 55% 30.15 in 6.2 mi West 9.2 mph - N/A   Partly Cloudy
2:00 PM 60 °F - 45 °F 46% 30.16 in 6 mi West 9.2 mph - -   Scattered Clouds
2:20 PM 60.8 °F - 42.8 °F 52% 30.15 in 6.2 mi WNW 10.4 mph - N/A   Scattered Clouds
2:50 PM 60.8 °F - 42.8 °F 52% 30.15 in 6.2 mi WNW 10.4 mph - N/A   Partly Cloudy
3:20 PM 60.8 °F - 42.8 °F 52% 30.15 in 6.2 mi WNW 10.4 mph - N/A   Partly Cloudy
3:50 PM 59.0 °F - 46.4 °F 63% 30.15 in 6.2 mi WNW 9.2 mph - N/A   Partly Cloudy
4:20 PM 59.0 °F - 46.4 °F 63% 30.15 in 6.2 mi NW 8.1 mph - N/A   Partly Cloudy
4:50 PM 57.2 °F - 46.4 °F 67% 30.15 in 6.2 mi NNW 6.9 mph - N/A   Partly Cloudy
5:20 PM 57.2 °F - 46.4 °F 67% 30.15 in 6.2 mi NNW 4.6 mph - N/A   Partly Cloudy
5:50 PM 57.2 °F - 46.4 °F 67% 30.15 in 6.2 mi Variable 3.5 mph - N/A   Partly Cloudy
6:20 PM 55.4 °F - 46.4 °F 72% 30.18 in - Variable 2.3 mph - N/A   Clear
6:50 PM 53.6 °F - 48.2 °F 82% 30.18 in - East 4.6 mph - N/A   Clear
7:20 PM 55.4 °F - 46.4 °F 72% 30.18 in - ESE 5.8 mph - N/A   Clear
7:50 PM 53.6 °F - 46.4 °F 77% 30.18 in - East 4.6 mph - N/A   Clear
8:00 PM 54 °F - 47 °F 68% 30.20 in 6 mi East 3.5 mph - -   Partly Cloudy
8:20 PM 51.8 °F - 46.4 °F 82% 30.18 in - East 4.6 mph - N/A   Clear
8:50 PM 51.8 °F - 46.4 °F 82% 30.18 in - ESE 6.9 mph - N/A   Clear
9:20 PM 51.8 °F - 46.4 °F 82% 30.18 in - SE 6.9 mph - N/A   Clear
9:50 PM 50.0 °F - 44.6 °F 82% 30.18 in - SE 6.9 mph - N/A   Clear
10:20 PM 50.0 °F - 44.6 °F 82% 30.18 in - SE 4.6 mph - N/A   Clear
10:50 PM 50.0 °F - 44.6 °F 82% 30.18 in 6.2 mi SSE 5.8 mph - N/A   Partly Cloudy
11:00 PM 50 °F - 45 °F 75% 30.19 in 6 mi SSE 5.8 mph - -   Scattered Clouds
11:20 PM 50.0 °F - 44.6 °F 82% 30.18 in 6.2 mi Variable 3.5 mph - N/A   Partly Cloudy
11:50 PM 50.0 °F - 44.6 °F 82% 30.18 in 6.2 mi SE 6.9 mph - N/A   Partly Cloudy